Location: ?ern� Novina
(50.6762°N, 14.8696°E)
Time: 02:55:38
(UTC+00:00)

SL-16 R/B - Pass Details

Date: 03 March 2021
Orbit: 842 x 846 km, 71.0° (Epoch: 13 April)

Event Time Altitude Azimuth Distance (km) Brightness Sun altitude
Rises 19:33:26 0° 253° (WSW) 3,399 6.0 -26.8°
Reaches altitude 10° 19:36:21 10° 267° (W) 2,468 5.4 -27.2°
Maximum altitude 19:40:54 24° 320° (NW) 1,677 4.3 -27.9°
Drops below altitude 10° 19:45:29 10° 14° (NNE) 2,479 4.8 -28.5°
Sets 19:48:26 0° 28° (NNE) 3,418 5.4 -28.9°
